1498323600.3,30841,23.88,74222.5,12.21,-27.99,-28.85,0,*41
1498323601.57,30842,23.88,74220.5,12.19,-27.61,-28.63,0,*46
1498323602.8,30843,23.88,74222.8,12.19,-27.67,-28.63,0,*41
1498323604.05,30844,23.88,74224.0,12.21,-27.77,-28.79,0,*47
1498323605.3,30845,23.88,74224.8,12.19,-27.83,-28.79,0,*46
1498323606.5,30846,23.88,74224.3,12.19,-27.67,-28.69,0,*4E
1498323607.73,30847,23.88,74224.5,12.17,-27.55,-28.53,0,*49
1498323609.01,30848,23.88,74224.8,12.17,-27.39,-28.43,0,*4D
1498323610.24,30849,23.88,74220.3,12.17,-27.71,-28.69,0,*48
1498323611.46,30850,23.88,74222.8,12.17,-27.51,-28.53,0,*4B
1498323612.72,30851,23.88,74222.8,12.17,-27.51,-28.43,0,*4B
1498323613.95,30852,23.88,74226.5,12.17,-27.67,-28.69,0,*45
1498323615.15,30853,23.88,74222.3,12.19,-27.67,-28.69,0,*4A
1498323616.39,30854,23.88,74224.5,12.17,-27.67,-28.69,0,*43
1498323617.66,30855,23.88,74224.5,12.17,-27.35,-28.25,0,*4D
1498323618.9,30856,23.88,74226.8,12.15,-27.07,-28.09,0,*43
1498323620.15,30857,23.88,74224.0,12.19,-27.19,-28.21,0,*4B
1498323621.41,30858,23.88,74226.5,12.17,-27.51,-28.59,0,*49
1498323622.64,30859,23.88,74222.8,12.15,-27.55,-28.63,0,*47
1498323623.87,30860,23.88,74226.3,12.15,-27.55,-28.59,0,*44
1498323625.12,30861,23.88,74224.8,12.17,-27.39,-28.37,0,*45
1498323626.35,30862,23.88,74222.3,12.15,-27.55,-28.47,0,*49
1498323627.58,30863,23.88,74224.0,12.15,-27.39,-28.31,0,*43
1498323628.84,30864,23.88,74224.0,12.17,-27.07,-28.09,0,*40
1498323630.09,30865,23.88,74226.3,12.17,-26.93,-27.93,0,*41
1498323631.32,30866,23.88,74226.3,12.17,-27.03,-27.93,0,*4A
1498323632.6,30867,23.88,74226.3,12.17,-27.23,-28.25,0,*4B
1498323633.86,30868,23.88,74226.3,12.17,-27.23,-28.31,0,*41
1498323635.13,30869,23.88,74224.8,12.17,-27.35,-28.43,0,*42
1498323636.39,30870,23.88,74226.5,12.15,-27.39,-28.43,0,*44
1498323637.64,30871,23.88,74224.8,12.15,-27.39,-28.43,0,*45
1498323638.87,30872,23.88,74226.3,12.15,-27.13,-28.25,0,*4E
1498323640.1,30873,23.88,74226.5,12.15,-27.23,-28.31,0,*49
1498323641.36,30874,23.88,74224.8,12.15,-27.23,-28.25,0,*4B
1498323642.65,30875,23.88,74226.8,12.13,-26.97,-27.99,0,*4A
1498323643.9,30876,23.88,74226.5,12.13,-26.77,-27.93,0,*4D
1498323645.11,30877,23.88,74228.8,12.15,-26.61,-27.77,0,*47
1498323646.37,30878,23.88,74230.5,12.15,-26.81,-27.99,0,*46
1498323647.63,30879,23.88,74230.3,12.15,-26.77,-27.99,0,*4E
1498323648.87,30880,23.88,74230.8,12.15,-26.81,-28.15,0,*4A
1498323650.08,30881,23.88,74228.0,12.15,-26.45,-27.89,0,*49
1498323651.28,30882,23.88,74226.8,12.15,-26.23,-27.89,0,*4A
1498323652.48,30883,23.88,74230.8,12.15,-26.39,-27.77,0,*41
1498323653.73,30884,23.88,74230.5,12.15,-25.81,-27.45,0,*47
1498323654.96,30885,23.88,74228.3,12.15,-25.81,-27.77,0,*47
1498323656.16,30886,23.88,74228.5,12.15,-26.07,-27.93,0,*43
1498323657.42,30887,23.88,74232.0,12.15,-26.29,-28.43,0,*4C
1498323658.65,30888,23.88,74228.3,12.15,-25.97,-28.31,0,*40
1498323659.88,30889,23.88,74234.0,12.15,-26.23,-28.63,0,*4A
1498323661.13,30890,23.88,74234.3,12.15,-26.13,-28.75,0,*46
1498323662.38,30891,23.88,74234.3,12.15,-26.55,-29.17,0,*40
1498323663.61,30892,23.88,74234.8,12.15,-26.77,-29.61,0,*42
1498323664.85,30893,23.88,74234.0,12.15,-26.97,-29.95,0,*46
1498323666.06,30894,23.88,74232.8,12.15,-27.29,-29.95,0,*45
1498323667.32,30895,23.88,74234.8,12.13,-27.93,-30.77,0,*47
1498323668.59,30896,23.88,74230.3,12.13,-27.83,-30.55,0,*45
1498323669.84,30897,23.88,74230.5,12.13,-27.83,-30.45,0,*45
1498323671.12,30898,23.88,74228.0,12.13,-27.83,-30.39,0,*41
1498323672.35,30899,23.88,74232.5,12.11,-27.99,-30.23,0,*42
1498323673.57,30900,23.88,74228.3,12.13,-28.31,-30.45,0,*4C
1498323674.83,30901,23.88,74230.0,12.13,-28.63,-30.45,0,*4A
1498323676.08,30902,23.88,74230.8,12.13,-28.47,-30.23,0,*4F
1498323677.31,30903,23.88,74230.5,12.13,-28.53,-30.11,0,*4A
1498323678.53,30904,23.88,74226.3,12.15,-28.47,-29.95,0,*4A
1498323679.76,30905,23.88,74226.3,12.15,-28.63,-29.95,0,*4D
1498323681.02,30906,23.88,74226.3,12.11,-28.63,-29.73,0,*42
1498323682.3,30907,23.88,74224.3,12.13,-28.79,-29.73,0,*4A
1498323683.55,30908,23.88,74224.3,12.13,-28.79,-29.67,0,*40
1498323684.81,30909,23.88,74224.8,12.13,-28.85,-29.73,0,*47
1498323686.04,30910,23.88,74222.5,12.13,-28.85,-29.83,0,*40
1498323687.29,30911,23.88,74224.8,12.13,-28.97,-29.73,0,*4D
1498323688.52,30912,23.88,74230.3,12.11,-28.97,-29.73,0,*4C
1498323689.73,30913,23.88,74226.8,12.11,-28.85,-29.67,0,*4B
1498323690.96,30914,23.88,74226.5,12.11,-28.79,-29.57,0,*4C
1498323692.19,30915,23.88,74228.8,12.11,-29.07,-30.05,0,*4A
1498323693.43,30916,23.88,74228.0,12.11,-29.51,-30.27,0,*4A
1498323694.67,30917,23.88,74228.8,12.11,-29.51,-30.11,0,*4E
1498323695.95,30918,23.88,74226.5,12.13,-29.17,-30.05,0,*44
1498323697.21,30919,23.88,74224.8,12.11,-29.73,-30.61,0,*47
1498323698.46,30920,23.88,74228.0,12.09,-30.83,-31.57,0,*47
1498323699.71,30921,23.88,74224.5,12.09,-31.11,-31.67,0,*4F
1498323700.97,30922,23.88,74224.5,12.07,-31.11,-31.51,0,*47
1498323702.24,30923,23.88,74220.5,12.05,-31.23,-31.57,0,*43
1498323703.5,30924,23.88,74222.8,12.05,-31.05,-31.23,0,*43
1498323704.76,30925,23.88,74220.0,12.01,-30.95,-31.05,0,*4A
1498323705.99,30926,23.88,74220.0,12.01,-31.05,-31.05,0,*41
1498323707.22,30927,23.88,74220.0,11.99,-31.05,-30.89,0,*47
1498323708.45,30928,23.88,74216.0,11.99,-31.05,-30.89,0,*48
1498323709.69,30929,23.88,74218.3,11.97,-31.17,-30.83,0,*4E
1498323710.95,30930,23.88,74216.5,11.97,-30.95,-30.67,0,*47
1498323712.21,30931,23.88,74218.0,11.97,-31.01,-30.61,0,*4C
1498323713.45,30932,23.88,74214.5,11.97,-30.67,-30.33,0,*49
1498323714.73,30933,23.88,74214.5,11.95,-30.51,-30.17,0,*49
1498323715.95,30934,23.88,74214.5,11.93,-30.51,-30.27,0,*4B
1498323717.15,30935,23.88,74212.3,11.93,-30.27,-29.95,0,*4A
1498323718.41,30936,23.88,74216.8,11.95,-29.95,-29.35,0,*44
1498323719.64,30937,23.94,74216.0,11.93,-30.01,-29.67,0,*41
1498323720.9,30938,23.88,74214.8,11.95,-29.95,-29.35,0,*4A
1498323722.13,30939,23.88,74214.8,11.93,-29.45,-28.91,0,*4F
1498323723.35,30940,23.88,74210.5,11.93,-29.79,-29.29,0,*4C
1498323724.62,30941,23.88,74208.0,11.91,-29.51,-29.13,0,*4C
1498323725.85,30942,23.88,74214.5,11.93,-29.61,-29.13,0,*4E
1498323727.07,30943,23.88,74210.3,11.93,-29.61,-29.13,0,*4F
1498323728.29,30944,23.88,74212.3,11.93,-29.61,-29.13,0,*48
1498323729.56,30945,23.88,74208.0,11.91,-29.51,-29.13,0,*48
1498323730.79,30946,23.88,74214.3,11.89,-29.61,-29.35,0,*45
1498323732.04,30947,23.94,74214.3,11.91,-29.51,-29.23,0,*49
1498323733.32,30948,23.94,74214.3,11.91,-29.39,-29.01,0,*48
1498323734.55,30949,23.88,74212.3,11.89,-29.23,-29.01,0,*4B
1498323735.8,30950,23.88,74212.0,11.89,-29.35,-29.01,0,*44
1498323737.09,30951,23.88,74214.3,11.87,-29.35,-29.01,0,*4B
1498323738.38,30952,23.88,74212.3,11.87,-29.35,-28.91,0,*40
1498323739.63,30953,23.88,74214.5,11.87,-29.07,-28.75,0,*4A
1498323740.86,30954,23.88,74214.8,11.85,-29.39,-29.07,0,*46
1498323742.11,30955,23.88,74212.5,11.85,-28.79,-28.47,0,*47
1498323743.37,30956,23.88,74218.3,11.85,-28.43,-28.25,0,*49
1498323744.63,30957,23.88,74218.0,11.85,-28.25,-28.05,0,*4A
1498323745.84,30958,23.88,74216.5,11.81,-28.31,-28.15,0,*45
1498323747.06,30959,23.94,74218.5,11.81,-28.47,-28.53,0,*47
1498323748.29,30960,23.88,74216.5,11.81,-28.47,-28.53,0,*4D
1498323749.52,30961,23.88,74218.0,11.79,-28.15,-28.31,0,*48
1498323750.75,30962,23.88,74222.8,11.81,-28.15,-28.25,0,*49
1498323752.01,30963,23.94,74222.5,11.79,-28.47,-28.69,0,*40
1498323753.26,30964,23.94,74222.3,11.79,-28.43,-28.53,0,*4A
1498323754.54,30965,23.88,74220.0,11.79,-28.43,-28.47,0,*4E
1498323755.83,30966,23.88,74222.0,11.79,-28.25,-28.43,0,*49
1498323757.06,30967,23.88,74220.8,11.75,-28.15,-28.15,0,*44
1498323758.32,30968,23.88,74216.0,11.79,-28.31,-28.25,0,*42
1498323759.61,30969,23.88,74216.8,11.79,-28.25,-28.25,0,*46
1498323760.87,30970,23.94,74220.5,11.75,-28.53,-28.47,0,*47
1498323762.13,30971,23.94,74216.8,11.75,-28.15,-28.05,0,*42
1498323763.4,30972,23.88,74214.8,11.75,-27.83,-27.83,0,*40
1498323764.69,30973,23.88,74218.5,11.75,-28.05,-28.21,0,*47
1498323765.96,30974,23.94,74216.0,11.75,-28.37,-28.21,0,*41
1498323767.19,30975,23.94,74216.3,11.79,-27.77,-27.77,0,*4B
1498323768.44,30976,23.88,74216.3,11.73,-27.45,-27.45,0,*42
1498323769.7,30977,23.94,74212.8,11.73,-27.45,-27.39,0,*48
1498323770.9,30978,23.94,74216.0,11.73,-27.71,-27.77,0,*4A
1498323772.14,30979,23.94,74218.3,11.75,-27.55,-27.67,0,*4A
1498323773.34,30980,23.94,74214.3,11.73,-28.37,-28.37,0,*4B
1498323774.55,30981,23.94,74214.3,11.73,-27.71,-27.77,0,*4C
1498323775.75,30982,23.94,74216.0,11.73,-27.89,-27.77,0,*48
1498323777.01,30983,23.94,74222.0,11.71,-27.77,-27.83,0,*41
1498323778.27,30984,23.88,74214.8,11.73,-28.59,-28.63,0,*46
1498323779.53,30985,23.94,74218.0,11.69,-28.63,-28.59,0,*4C
1498323780.79,30986,23.88,74214.8,11.69,-27.83,-27.83,0,*46
1498323782.02,30987,23.94,74216.8,11.69,-27.07,-27.23,0,*41
1498323783.26,30988,23.88,74216.0,11.69,-27.07,-27.23,0,*4E
1498323784.52,30989,23.88,74218.5,11.69,-26.77,-26.97,0,*47
1498323785.76,30990,23.94,74218.3,11.69,-26.65,-26.77,0,*42
1498323787.04,30991,23.94,74220.8,11.71,-26.55,-26.55,0,*49
1498323788.3,30992,23.94,74220.3,11.71,-26.61,-26.77,0,*4D
1498323789.54,30993,23.94,74216.5,11.69,-26.81,-27.07,0,*4D
1498323790.81,30994,23.94,74222.5,11.71,-26.77,-27.07,0,*4A
1498323792.04,30995,23.94,74218.5,11.71,-27.29,-27.51,0,*42
1498323793.31,30996,23.94,74220.3,11.71,-27.07,-27.39,0,*43
1498323794.59,30997,23.94,74220.8,11.71,-27.23,-27.45,0,*4F
1498323795.82,30998,23.94,74220.8,11.69,-26.77,-27.07,0,*4F
1498323797.06,30999,23.94,74222.3,11.69,-26.49,-26.77,0,*45
1498323798.29,31000,23.94,74222.8,11.69,-26.45,-26.81,0,*48
1498323799.55,31001,23.94,74220.0,11.71,-26.29,-26.65,0,*40
1498323800.82,31002,23.94,74222.3,11.69,-26.77,-27.39,0,*49
1498323802.03,31003,23.94,74220.3,11.69,-26.39,-26.65,0,*4A
1498323803.26,31004,23.94,74222.3,11.71,-25.91,-26.39,0,*4C
1498323804.5,31005,23.94,74224.0,11.71,-25.91,-26.39,0,*4D
1498323805.76,31006,23.94,74224.8,11.71,-26.39,-26.93,0,*4F
1498323806.99,31007,23.94,74224.0,11.71,-26.07,-26.61,0,*4E
1498323808.25,31008,23.94,74224.3,11.71,-25.81,-26.45,0,*4A
1498323809.45,31009,23.94,74226.8,11.69,-25.91,-26.45,0,*43
1498323810.72,31010,23.94,74226.8,11.71,-25.75,-26.39,0,*43
1498323811.98,31011,23.94,74228.3,11.71,-25.97,-26.61,0,*43
1498323813.23,31012,23.94,74230.0,11.73,-26.71,-27.39,0,*45
1498323814.46,31013,23.94,74226.8,11.73,-26.39,-27.19,0,*4A
1498323815.7,31014,23.94,74228.8,11.73,-26.39,-27.23,0,*44
1498323816.96,31015,23.94,74228.5,11.73,-26.33,-27.19,0,*46
1498323818.21,31016,23.94,74228.3,11.71,-26.61,-27.45,0,*49
1498323819.47,31017,23.94,74226.8,11.71,-26.65,-27.45,0,*4C
1498323820.76,31018,23.94,74226.3,11.71,-26.29,-26.97,0,*45
1498323821.99,31019,23.94,74224.3,11.71,-26.23,-27.07,0,*46
1498323823.25,31020,23.94,74228.3,11.71,-26.29,-27.13,0,*43
1498323824.47,31021,23.94,74228.3,11.71,-26.23,-27.13,0,*48
1498323825.77,31022,23.94,74228.8,11.71,-26.97,-27.99,0,*46
1498323827.03,31023,23.94,74226.5,11.71,-26.65,-27.61,0,*4D
1498323828.24,31024,23.94,74226.3,11.69,-26.61,-27.67,0,*41
1498323829.45,31025,23.94,74226.8,11.69,-26.45,-27.51,0,*43
1498323830.67,31026,23.94,74226.0,11.69,-26.23,-27.45,0,*45
1498323831.93,31027,23.94,74226.0,11.69,-26.13,-27.39,0,*4C
1498323833.18,31028,23.94,74226.3,11.69,-26.29,-27.45,0,*41
1498323834.42,31029,23.94,74224.5,11.69,-26.61,-27.99,0,*4D
1498323835.63,31030,23.94,74228.3,11.69,-26.65,-27.93,0,*4B
1498323836.92,31031,23.94,74230.0,11.67,-26.81,-28.05,0,*4E
1498323838.17,31032,23.94,74226.8,11.67,-27.03,-28.47,0,*40
1498323839.38,31033,23.94,74228.8,11.65,-27.07,-28.53,0,*42
1498323840.58,31034,23.94,74226.0,11.65,-26.61,-27.93,0,*47
1498323841.81,31035,23.94,74228.0,11.65,-26.55,-27.89,0,*4A
1498323843.07,31036,23.94,74228.0,11.65,-26.17,-27.61,0,*49
1498323844.3,31037,23.94,74230.0,11.65,-25.87,-27.39,0,*4F
1498323845.51,31038,23.94,74232.0,11.65,-26.07,-27.55,0,*41
1498323846.74,31039,23.94,74230.3,11.65,-25.91,-27.35,0,*4A
1498323847.97,31040,23.94,74226.3,11.65,-26.17,-27.55,0,*4F
1498323849.23,31041,23.94,74228.5,11.67,-26.29,-27.67,0,*40
1498323850.45,31042,23.94,74226.0,11.65,-26.87,-28.43,0,*4C
1498323851.68,31043,23.94,74224.5,11.65,-27.03,-28.63,0,*42
1498323852.92,31044,23.94,74228.0,11.65,-26.77,-28.37,0,*46
1498323854.15,31045,23.94,74224.5,11.65,-26.77,-28.37,0,*47
1498323855.41,31046,23.94,74226.0,11.65,-26.77,-28.43,0,*47
1498323856.62,31047,23.94,74226.8,11.63,-26.49,-27.89,0,*44
1498323857.88,31048,23.94,74228.5,11.63,-26.17,-27.61,0,*46
1498323859.12,31049,23.94,74228.8,11.63,-26.61,-28.21,0,*4D
1498323860.37,31050,23.94,74226.3,11.63,-26.55,-28.09,0,*48
1498323861.63,31051,23.94,74230.3,11.63,-26.71,-28.21,0,*45
1498323862.88,31052,23.94,74230.0,11.63,-26.71,-28.09,0,*4C
1498323864.14,31053,23.94,74224.0,11.63,-26.71,-28.25,0,*43
1498323865.37,31054,23.94,74230.3,11.63,-27.07,-28.79,0,*4D
1498323866.65,31055,23.94,74226.5,11.61,-26.97,-28.75,0,*4A
1498323867.91,31056,23.94,74226.5,11.63,-26.71,-28.25,0,*46
1498323869.17,31057,23.94,74226.0,11.61,-26.65,-28.25,0,*40
1498323870.38,31058,23.94,74224.3,11.63,-26.49,-27.93,0,*41
1498323871.62,31059,23.94,74224.8,11.63,-26.17,-27.89,0,*40
1498323872.88,31060,23.94,74222.3,11.61,-26.65,-28.25,0,*44
1498323874.11,31061,23.94,74220.5,11.63,-27.07,-28.75,0,*47
1498323875.4,31062,23.94,74224.0,11.61,-26.77,-28.25,0,*45
1498323876.68,31063,23.94,74222.8,11.61,-26.93,-28.47,0,*4A
1498323877.93,31064,23.94,74224.5,11.61,-27.99,-29.61,0,*43
1498323879.19,31065,23.94,74222.0,11.61,-27.45,-28.97,0,*4B
1498323880.46,31066,23.94,74222.3,11.61,-27.39,-28.75,0,*4F
1498323881.69,31067,23.94,74222.5,11.59,-27.07,-28.47,0,*49
1498323882.95,31068,23.94,74220.3,11.61,-27.13,-28.63,0,*4E
1498323884.18,31069,23.94,74222.8,11.59,-27.67,-29.17,0,*45
1498323885.46,31070,23.94,74222.5,11.61,-27.23,-28.63,0,*44
1498323886.72,31071,23.94,74222.8,11.61,-27.45,-28.85,0,*4D
1498323887.95,31072,23.94,74222.0,11.59,-27.77,-29.17,0,*4E
1498323889.18,31073,23.94,74220.5,11.59,-28.43,-29.83,0,*4A
1498323890.43,31074,23.94,74224.5,11.57,-28.53,-29.89,0,*48
1498323891.66,31075,23.94,74224.5,11.57,-28.69,-30.11,0,*49
1498323892.89,31076,23.94,74226.5,11.51,-28.69,-30.01,0,*4D
1498323894.13,31077,23.94,74228.3,11.51,-28.69,-29.89,0,*44
1498323895.36,31078,23.94,74226.0,11.53,-28.37,-29.61,0,*44
1498323896.62,31079,23.94,74226.0,11.51,-28.59,-29.73,0,*4C
1498323897.85,31080,23.94,74230.0,11.51,-29.13,-30.33,0,*49
1498323899.11,31081,23.94,74230.5,11.49,-28.79,-29.95,0,*48
1498323900.37,31082,23.94,74224.5,11.47,-29.01,-30.05,0,*4A
1498323901.62,31083,23.94,74222.8,11.47,-28.47,-29.51,0,*41
1498323902.84,31084,23.94,74222.8,11.47,-28.85,-29.83,0,*47
1498323904.07,31085,23.94,74222.5,11.47,-28.79,-29.67,0,*4F
1498323905.31,31086,23.94,74222.3,11.47,-29.07,-30.01,0,*4C
1498323906.6,31087,23.94,74222.5,11.45,-29.35,-30.05,0,*4A
1498323907.86,31088,23.94,74222.5,11.43,-29.13,-29.89,0,*4B
1498323909.07,31089,23.94,74220.3,11.43,-28.85,-29.57,0,*47
1498323910.3,31090,23.94,74220.5,11.45,-28.15,-28.85,0,*4E
1498323911.56,31091,23.94,74220.5,11.43,-28.05,-28.75,0,*47
1498323912.81,31092,23.94,74222.8,11.43,-28.05,-28.75,0,*44
1498323914.05,31093,23.94,74224.0,11.43,-27.67,-28.25,0,*4B
1498323915.28,31094,23.94,74226.3,11.43,-27.83,-28.53,0,*47
1498323916.49,31095,23.94,74220.0,11.43,-27.93,-28.69,0,*4E
1498323917.69,31096,23.94,74220.0,11.43,-27.71,-28.53,0,*48
1498323918.95,31097,23.94,74222.5,11.43,-27.39,-28.21,0,*40
1498323920.21,31098,23.94,74224.8,11.43,-27.35,-28.05,0,*45
1498323921.44,31099,23.94,74222.8,11.43,-27.55,-28.43,0,*40
1498323922.71,31100,23.94,74220.3,11.43,-27.61,-28.43,0,*46
1498323923.97,31101,23.94,74220.0,11.45,-27.77,-28.63,0,*44
1498323925.24,31102,23.94,74224.5,11.41,-27.99,-28.75,0,*44
1498323926.5,31103,23.94,74220.8,11.41,-27.77,-28.63,0,*42
1498323927.73,31104,23.94,74218.5,11.43,-27.67,-28.43,0,*44
1498323928.96,31105,23.94,74220.8,11.43,-27.83,-28.53,0,*4E
1498323930.17,31106,23.94,74218.8,11.43,-27.71,-28.53,0,*40
1498323931.4,31107,23.94,74222.5,11.43,-27.71,-28.59,0,*4B
1498323932.61,31108,23.94,74220.0,11.43,-27.71,-28.69,0,*47
1498323933.87,31109,23.94,74222.0,11.43,-28.21,-28.91,0,*4B
1498323935.1,31110,23.94,74222.5,11.43,-27.83,-28.53,0,*4A
1498323936.39,31111,23.94,74222.0,11.41,-27.61,-28.25,0,*44
1498323937.6,31112,23.94,74216.3,11.43,-27.55,-28.37,0,*41
1498323938.83,31113,23.94,74216.3,11.41,-27.55,-28.15,0,*42
1498323940.09,31114,23.94,74220.3,11.41,-27.39,-27.93,0,*4E
1498323941.34,31115,23.94,74220.8,11.41,-26.93,-27.55,0,*44
1498323942.61,31116,23.94,74222.3,11.41,-26.77,-27.29,0,*46
1498323943.89,31117,23.94,74218.0,11.41,-26.71,-27.23,0,*4B
1498323945.14,31118,23.94,74218.0,11.41,-26.71,-27.29,0,*4E
1498323946.42,31119,23.0,74216.3,11.41,-26.71,-27.23,0,*45
1498323947.62,31120,23.94,74216.5,11.43,-26.23,-27.07,0,*4C
1498323948.83,31121,23.94,74216.3,11.43,-27.03,-27.89,0,*48
1498323950.09,31122,23.94,74216.8,11.43,-27.23,-28.21,0,*44
1498323951.34,31123,23.94,74218.8,11.45,-27.19,-28.37,0,*4D
1498323952.58,31124,23.94,74216.5,11.41,-27.13,-28.31,0,*42
1498323953.8,31125,23.94,74216.3,11.43,-26.71,-27.93,0,*43
1498323955.03,31126,23.94,74218.5,11.43,-26.55,-27.93,0,*46
1498323956.31,31127,24.0,74220.3,11.41,-26.71,-28.25,0,*41
1498323957.59,31128,23.94,74218.8,11.41,-26.55,-27.99,0,*40
1498323958.85,31129,24.0,74218.5,11.41,-26.39,-27.99,0,*4B
1498323960.13,31130,23.94,74214.5,11.41,-26.55,-28.25,0,*41
1498323961.39,31131,23.94,74216.5,11.39,-26.29,-28.09,0,*4A
1498323962.63,31132,23.94,74216.5,11.39,-26.23,-28.09,0,*43
1498323963.89,31133,23.94,74216.5,11.39,-26.13,-27.99,0,*47
1498323965.13,31134,23.94,74216.3,11.39,-26.07,-27.99,0,*45
1498323966.37,31135,23.94,74216.5,11.39,-25.97,-27.93,0,*44
1498323967.59,31136,24.0,74218.3,11.41,-26.07,-27.93,0,*42
1498323968.88,31137,23.94,74218.3,11.41,-26.13,-27.99,0,*4C
1498323970.11,31138,23.94,74216.8,11.41,-26.23,-28.15,0,*4B
1498323971.36,31139,23.94,74220.5,11.41,-26.23,-28.09,0,*47
1498323972.64,31140,23.94,74220.8,11.41,-26.29,-28.09,0,*43
1498323973.89,31141,23.94,74218.0,11.41,-26.61,-28.43,0,*40
1498323975.13,31142,24.0,74220.8,11.43,-26.17,-27.93,0,*42
1498323976.34,31143,24.0,74222.3,11.43,-26.07,-27.89,0,*49
1498323977.59,31144,24.0,74220.5,11.45,-26.61,-28.47,0,*45
1498323978.83,31145,24.0,74222.3,11.43,-26.81,-28.53,0,*49
1498323980.03,31146,24.0,74220.0,11.43,-27.03,-28.69,0,*48
1498323981.24,31147,24.0,74220.3,11.43,-27.03,-28.69,0,*49
1498323982.47,31148,24.0,74222.3,11.43,-26.87,-28.43,0,*43
1498323983.73,31149,23.94,74220.3,11.45,-26.81,-28.37,0,*41
1498323984.96,31150,24.0,74220.0,11.43,-27.03,-28.59,0,*4C
1498323986.19,31151,24.0,74220.5,11.43,-27.35,-28.85,0,*49
1498323987.44,31152,23.94,74220.8,11.43,-27.23,-28.75,0,*42
1498323988.68,31153,24.0,74222.0,11.43,-27.39,-28.69,0,*45
1498323989.88,31154,23.94,74222.5,11.43,-27.55,-28.85,0,*4A
1498323991.1,31155,24.0,74220.0,11.43,-27.67,-28.85,0,*4A
1498323992.33,31156,24.0,74224.8,11.43,-27.83,-28.85,0,*43
1498323993.58,31157,24.0,74222.5,11.45,-27.77,-28.79,0,*4C
1498323994.81,31158,24.0,74226.3,11.45,-27.67,-28.69,0,*43
1498323996.02,31159,24.0,74222.5,11.43,-27.89,-28.85,0,*46
1498323997.28,31160,24.0,74222.3,11.45,-28.37,-29.39,0,*46
1498323998.51,31161,23.94,74220.5,11.43,-29.13,-29.95,0,*40
1498323999.72,31162,24.0,74220.5,11.43,-29.07,-29.95,0,*46
1498324000.95,31163,24.0,74218.5,11.43,-28.91,-29.61,0,*42
1498324002.16,31164,24.0,74222.0,11.43,-28.53,-29.23,0,*4D
1498324003.44,31165,24.0,74222.0,11.41,-28.63,-29.51,0,*48
1498324004.73,31166,24.0,74220.0,11.41,-28.63,-29.35,0,*49
1498324006.0,31167,24.0,74220.5,11.41,-28.79,-29.29,0,*4E
1498324007.24,31168,24.0,74220.5,11.39,-28.91,-29.45,0,*42
1498324008.48,31169,24.0,74220.3,11.43,-28.91,-29.45,0,*4E
1498324009.74,31170,24.0,74218.0,11.41,-29.07,-29.51,0,*4F
1498324011.02,31171,24.0,74218.0,11.41,-28.63,-29.13,0,*4B
1498324012.25,31172,24.0,74220.3,11.39,-28.97,-29.29,0,*45
1498324013.5,31173,24.0,74216.5,11.41,-28.75,-28.97,0,*43
1498324014.76,31174,24.0,74220.5,11.41,-28.31,-28.63,0,*4F
1498324016.0,31175,24.0,74216.5,11.39,-28.09,-28.31,0,*4D
1498324017.24,31176,24.0,74218.5,11.39,-28.09,-28.15,0,*48
1498324018.52,31177,24.0,74218.5,11.41,-28.09,-28.25,0,*45
1498324019.76,31178,24.0,74222.0,11.39,-28.31,-28.43,0,*4E
1498324021.04,31179,23.94,74216.0,11.41,-28.47,-28.63,0,*43
1498324022.3,31180,24.0,74222.3,11.39,-28.43,-28.59,0,*47
1498324023.56,31181,24.0,74218.0,11.39,-28.47,-28.59,0,*42
1498324024.79,31182,24.0,74218.0,11.41,-28.31,-28.31,0,*41
1498324026.02,31183,24.0,74218.3,11.39,-29.07,-29.13,0,*4A
1498324027.3,31184,24.0,74220.5,11.41,-29.29,-29.35,0,*4A
1498324028.59,31185,24.0,74222.5,11.41,-29.35,-29.35,0,*46
1498324029.83,31186,24.0,74220.8,11.39,-29.61,-29.51,0,*49
1498324031.11,31187,24.0,74220.0,11.37,-29.13,-29.13,0,*45
1498324032.38,31188,24.0,74220.5,11.37,-29.01,-28.97,0,*44
1498324033.61,31189,24.0,74220.0,11.35,-29.01,-28.97,0,*47
1498324034.85,31190,24.0,74220.8,11.35,-28.79,-28.85,0,*42
1498324036.06,31191,24.0,74222.0,11.35,-28.85,-28.97,0,*43
1498324037.29,31192,24.0,74220.0,11.35,-29.17,-29.23,0,*44
1498324038.56,31193,24.0,74220.5,11.31,-29.39,-29.45,0,*4D
1498324039.82,31194,24.0,74218.0,11.31,-29.01,-29.07,0,*47
1498324041.05,31195,24.0,74220.8,11.29,-29.07,-29.01,0,*4F
1498324042.28,31196,24.0,74220.0,11.29,-29.23,-29.13,0,*49
1498324043.53,31197,24.0,74220.3,11.29,-28.75,-28.75,0,*4B
1498324044.81,31198,24.0,74218.0,11.27,-28.75,-28.75,0,*4A
1498324046.07,31199,24.0,74220.5,11.29,-28.63,-28.47,0,*43
1498324047.3,31200,24.0,74220.5,11.29,-28.43,-28.31,0,*43
1498324048.54,31201,24.0,74222.8,11.29,-28.25,-28.15,0,*44
1498324049.8,31202,24.0,74218.0,11.27,-28.09,-27.89,0,*4D
1498324051.04,31203,24.0,74220.0,11.29,-28.15,-28.09,0,*48
1498324052.3,31204,24.0,74222.3,11.29,-28.09,-28.09,0,*42
1498324053.55,31205,24.0,74220.0,11.29,-28.47,-28.25,0,*47
1498324054.82,31206,24.0,74220.3,11.27,-28.25,-28.15,0,*4D
1498324056.08,31207,24.0,74214.0,11.27,-28.09,-27.93,0,*43
1498324057.34,31208,24.0,74222.3,11.27,-27.77,-27.61,0,*47
1498324058.59,31209,24.0,74220.5,11.27,-28.15,-28.09,0,*4C
1498324059.88,31210,24.0,74216.5,11.27,-28.25,-28.09,0,*47
1498324061.17,31211,24.0,74220.0,11.27,-28.25,-28.09,0,*46
1498324062.43,31212,24.0,74218.3,11.27,-28.43,-28.15,0,*48
1498324063.68,31213,24.0,74218.0,11.27,-28.31,-28.09,0,*41
1498324064.94,31214,24.0,74218.8,11.27,-28.31,-28.09,0,*46
1498324066.18,31215,24.0,74218.3,11.27,-28.31,-28.15,0,*4A
1498324067.38,31216,24.0,74218.5,11.25,-28.31,-28.15,0,*4B
1498324068.6,31217,24.0,74218.0,11.25,-28.31,-28.15,0,*4A
1498324069.8,31218,24.0,74218.0,11.25,-28.53,-28.37,0,*41
1498324071.02,31219,24.0,74212.8,11.25,-28.37,-28.31,0,*44
1498324072.28,31220,24.0,74218.5,11.23,-28.15,-28.09,0,*43
1498324073.54,31221,24.0,74212.5,11.23,-27.99,-27.77,0,*4F
1498324074.83,31222,24.0,74216.0,11.23,-27.99,-27.99,0,*4C
1498324076.12,31223,24.0,74218.8,11.23,-28.09,-27.99,0,*4B
1498324077.36,31224,24.0,74216.0,11.21,-28.21,-28.15,0,*4F
1498324078.62,31225,24.0,74218.3,11.23,-27.93,-27.83,0,*4A
1498324079.84,31226,24.0,74214.3,11.21,-27.71,-27.71,0,*4A
1498324081.13,31227,24.0,74216.8,11.23,-28.21,-28.21,0,*49
1498324082.4,31228,24.0,74216.8,11.21,-28.25,-28.25,0,*44
1498324083.67,31229,24.0,74218.8,11.21,-28.21,-28.25,0,*41
1498324084.94,31230,24.0,74216.8,11.21,-28.25,-28.21,0,*49
1498324086.16,31231,24.0,74218.3,11.21,-28.37,-28.53,0,*4E
1498324087.4,31232,24.0,74216.5,11.21,-28.37,-28.25,0,*4C
1498324088.64,31233,24.0,74218.8,11.19,-27.93,-27.93,0,*45
1498324089.88,31234,24.0,74220.5,11.19,-27.71,-27.71,0,*42
1498324091.12,31235,24.0,74218.8,11.19,-27.77,-27.89,0,*42
1498324092.38,31236,24.0,74218.3,11.19,-27.55,-27.61,0,*47
1498324093.65,31237,24.0,74218.8,11.19,-27.45,-27.55,0,*40
1498324094.94,31238,24.0,74216.3,11.19,-27.39,-27.39,0,*4E
1498324096.15,31239,24.0,74218.5,11.17,-27.07,-27.13,0,*44
1498324097.38,31240,24.0,74218.0,11.17,-27.23,-27.29,0,*45
1498324098.62,31241,24.0,74218.3,11.17,-26.97,-27.13,0,*43
1498324099.89,31242,24.0,74220.3,11.19,-26.93,-27.07,0,*4F